Terminal Aerodrome Forecast
Issued by NWS Billings, MT

Home | Current Version | Previous Version | Graphics & Text | Print | Product List | Glossary On
Versions: 1 2 3 4 5 6 7 8 9 10 11 12 13 14 15 16 17 18 19 20 21 22 23 24 25 26 27 28 29 30 31 32 33 34 35 36 37 38 39 40 41 42 43 44 45 46 47 48
616
FTUS45 KBYZ 271739
TAFMLS
TAF
KMLS 271739Z 2718/2818 02011KT 5SM -RA BR SCT008 BKN015 OVC025
     FM280400 06007KT 5SM -RA BR SCT004 BKN008 OVC012
     FM281600 07008KT 6SM -DZ BR SCT008 OVC015=

USA.gov is the U.S. government's official web portal to all federal, state and local government web resources and services.